Wind_Speed
24 26 28 30 32 34 36 37 38 40 41 42 43 44 46 48 49 51 52 53 54 55 56 58 60 61 61 61 63 64 66 68 69 71 72 74 74 75 75 75 75 73 73 74 75 76 77 78 79 79 79 80 84 87 90 90 88 88 89 90 92 94 95 96 96 98 98 97 96 95 92 89 84 79 75 70 65 61 60 59 58 56 52 51 56 62
25 27 29 31 33 35 37 38 39 40 41 42 43 45 47 49 51 52 53 52 52 53 56 58 60 62 62 63 64 66 67 69 71 73 74 75 76 76 76 76 76 75 74 75 75 76 77 78 79 78 79 81 85 88 90 90 88 88 89 90 92 94 96 96 97 98 99 98 95 94 91 87 83 78 73 69 64 60 57 58 58 57 54 51 51 56
27 29 31 33 34 36 37 39 39 40 42 43 44 46 48 50 52 54 54 53 51 52 55 58 60 63 63 64 65 67 69 71 73 74 75 76 77 77 78 77 76 75 75 75 75 76 77 78 78 78 80 83 86 88 90 89 88 89 90 90 92 94 95 96 98 100 101 99 96 94 91 87 82 77 72 68 63 59 56 55 57 57 55 52 50 51
29 30 32 34 36 37 38 39 40 41 42 44 45 47 49 51 52 54 55 55 53 53 55 57 61 65 65 65 67 69 70 73 74 75 76 77 78 78 78 78 77 76 75 75 76 76 77 78 78 78 81 84 86 88 89 88 88 89 90 89 91 94 95 97 99 101 102 100 97 95 91 87 82 77 72 68 63 58 55 54 54 55 55 53 51 50
30 32 33 35 37 38 39 40 41 42 43 44 46 48 50 52 53 53 54 56 56 56 57 58 60 66 67 67 69 71 73 74 75 76 76 77 78 78 78 79 77 76 75 75 76 77 78 77 77 79 82 85 86 88 89 88 88 89 89 89 91 94 96 99 101 103 103 101 98 96 93 88 84 77 71 67 64 59 55 54 53 53 53 52 51 50
31 33 35 36 38 39 40 42 43 44 44 46 48 50 51 53 55 55 55 56 59 59 60 60 60 64 68 68 70 73 75 76 76 76 76 77 77 78 78 78 77 75 75 76 76 77 77 77 78 80 83 85 87 88 88 87 88 88 88 89 92 95 98 100 102 104 104 102 100 97 94 90 85 79 73 67 63 59 55 53 53 52 50 50 49 50
32 34 36 37 39 40 42 43 44 46 46 47 49 52 53 55 56 57 57 58 60 61 62 62 61 64 69 70 72 75 76 76 76 76 76 76 77 78 78 78 77 75 75 76 76 77 77 77 79 81 83 86 88 88 88 87 88 88 88 90 93 97 100 102 104 105 106 104 101 98 95 90 85 80 75 69 64 59 56 53 53 52 49 47 47 48
34 35 37 39 40 41 43 44 46 47 49 50 52 53 55 57 57 58 59 61 63 64 64 64 64 66 70 71 73 75 76 76 76 76 76 76 77 78 78 78 77 76 76 76 76 77 76 77 79 82 84 87 87 87 87 88 88 88 89 92 95 98 102 104 105 106 107 106 102 98 94 90 85 79 74 70 65 60 56 53 52 50 48 45 44 46
36 37 39 40 41 43 44 46 47 49 51 53 54 55 56 58 59 60 62 64 66 66 66 67 67 68 71 73 73 74 75 75 75 76 76 76 77 78 78 78 77 77 76 76 77 77 77 78 80 83 85 87 87 87 87 88 88 88 90 94 97 100 103 106 107 108 109 107 103 99 95 90 85 79 74 70 66 61 57 54 51 49 46 44 44 44
38 40 41 42 43 44 46 48 49 51 53 54 56 57 58 59 61 62 64 67 68 68 68 69 69 69 71 73 73 73 74 74 75 75 75 77 78 78 79 78 78 77 76 77 77 77 77 79 81 84 85 86 87 87 88 88 89 89 92 95 98 101 104 107 109 110 111 109 105 100 96 91 86 81 75 70 66 62 58 54 50 47 45 43 43 44
40 42 43 44 45 46 48 49 51 53 53 54 56 58 60 61 62 64 66 68 70 70 70 71 71 71 72 72 73 73 73 74 74 75 76 77 78 78 79 79 78 76 76 77 77 76 77 79 82 84 85 86 87 88 89 89 89 90 93 96 99 101 104 107 110 112 112 111 108 103 98 93 88 83 77 72 67 62 58 55 50 46 44 43 42 43
42 43 45 46 47 48 50 51 52 53 54 55 56 58 60 62 64 65 66 68 70 71 71 72 72 72 73 73 73 74 74 74 75 75 76 78 78 79 79 79 78 76 76 77 76 76 77 80 82 84 85 86 88 89 89 89 89 90 93 96 98 101 104 107 110 113 114 113 109 104 99 94 89 84 80 75 69 63 59 55 51 47 44 42 42 42
43 44 45 47 48 50 51 52 52 54 55 56 58 60 62 63 64 64 65 66 69 73 73 73 72 72 74 75 75 75 75 75 76 77 78 78 79 79 79 78 77 75 76 76 75 76 78 80 83 84 85 87 89 89 90 89 89 90 93 96 98 101 103 106 110 114 115 114 111 106 101 96 91 86 81 77 71 65 59 55 52 48 45 43 42 41
44 45 46 48 49 50 51 52 53 55 57 58 60 61 63 64 64 64 65 65 67 71 74 75 74 72 74 76 76 76 76 76 77 78 79 79 79 79 78 77 76 75 75 74 74 76 78 81 83 84 86 88 89 91 91 90 89 91 93 96 98 101 104 107 110 113 115 114 112 107 102 98 93 87 83 79 73 67 61 56 52 49 46 44 43 41
44 45 47 48 50 51 52 54 55 57 59 60 61 63 64 66 66 66 67 66 66 69 73 77 77 74 74 76 77 76 77 77 78 79 79 79 78 78 77 76 74 73 73 73 74 76 79 81 83 85 87 89 90 92 92 90 90 91 94 97 100 102 104 107 110 112 114 115 113 109 104 99 94 89 85 81 76 69 63 58 54 50 47 45 44 42
45 47 48 49 51 52 54 56 58 59 60 62 63 64 65 67 68 68 69 69 68 69 72 76 78 76 74 76 77 77 77 78 78 79 79 78 78 77 76 74 73 72 72 73 74 77 79 82 83 85 87 90 91 93 92 91 91 93 95 98 101 103 105 107 110 112 114 115 115 111 106 101 96 91 87 83 78 72 66 61 56 52 48 46 45 43
46 48 50 51 52 54 55 57 59 61 62 64 65 66 67 68 69 69 70 70 70 69 71 76 79 76 72 74 76 76 77 78 78 79 78 78 77 76 74 72 71 71 71 73 75 78 80 82 84 86 88 90 92 93 92 92 93 95 97 99 102 104 105 107 109 111 114 116 116 114 108 102 97 92 88 85 80 75 69 64 59 55 50 47 46 44
47 49 52 53 54 56 57 59 61 63 64 66 67 68 68 69 69 70 71 70 70 69 69 73 80 78 72 72 75 76 77 78 79 79 78 77 76 73 71 70 70 70 71 74 76 79 81 82 84 87 89 91 93 93 93 93 95 97 99 101 103 105 105 106 108 111 114 117 118 116 111 104 98 93 89 85 81 77 71 66 61 56 52 49 48 46
49 51 54 55 56 57 58 60 62 65 67 68 69 70 70 70 70 71 72 71 70 69 68 69 78 82 76 73 76 77 78 79 79 79 78 76 73 70 68 68 68 70 72 75 77 79 81 83 85 88 90 92 93 93 93 95 97 99 101 102 104 106 107 107 108 110 113 117 119 118 113 107 100 94 90 85 81 77 71 66 61 56 53 49 48 47
51 53 55 57 57 58 59 61 64 66 69 70 71 71 71 71 71 71 73 74 73 72 70 68 74 82 80 76 78 79 79 80 79 79 77 74 70 66 65 66 68 70 73 76 78 79 81 84 86 89 91 93 93 93 95 97 99 100 102 104 105 106 108 109 109 110 113 117 119 119 115 109 102 96 91 86 82 77 71 66 61 56 52 49 47 46
53 55 56 58 59 60 61 63 65 68 70 71 71 70 70 71 71 71 72 75 75 75 74 71 73 82 82 78 80 81 80 81 79 77 74 70 66 64 63 65 67 71 74 76 78 80 82 85 87 90 92 93 94 95 98 100 100 102 104 105 106 107 109 110 111 111 113 116 119 120 116 111 104 97 92 87 82 77 72 67 62 58 54 50 47 45
54 56 57 59 61 62 64 65 66 68 70 71 71 70 70 71 72 73 72 74 76 77 78 75 75 82 84 80 81 82 80 79 77 73 70 66 63 62 62 64 68 71 74 77 78 81 83 86 89 91 93 94 95 97 100 101 102 103 106 107 108 108 109 110 111 111 112 115 119 120 118 113 107 99 93 88 83 78 74 68 64 59 56 53 49 46
56 57 58 60 63 65 66 66 66 67 69 70 70 69 69 71 73 74 74 75 77 78 80 78 75 80 85 82 80 79 77 76 74 69 66 63 61 61 62 64 68 72 74 77 79 82 84 87 90 92 94 96 97 99 102 103 104 106 108 109 109 109 110 111 112 111 112 114 117 120 119 115 109 101 94 89 84 80 75 70 65 61 57 54 51 48
57 58 59 60 63 66 68 67 66 67 68 69 71 70 70 71 73 76 77 78 78 79 82 81 77 78 83 81 77 76 74 73 71 66 62 60 60 61 63 66 69 72 75 77 80 83 86 88 91 93 96 97 99 101 103 105 106 108 110 110 110 111 112 113 113 112 112 112 115 119 120 116 111 104 96 90 85 81 76 71 66 62 58 55 53 50
58 59 60 60 61 64 67 68 67 67 68 70 71 72 71 72 75 78 80 80 80 79 81 83 78 76 78 78 75 75 73 71 69 64 60 60 61 63 65 68 70 72 75 78 81 85 87 90 92 95 97 99 101 103 105 107 109 110 111 112 112 113 114 114 114 113 112 112 114 118 120 118 113 106 98 92 86 81 76 72 66 62 59 55 53 51
59 61 62 62 62 63 65 66 66 66 68 71 73 74 73 74 77 80 81 81 80 78 79 81 77 71 72 75 75 75 72 68 66 63 61 62 64 66 68 70 71 74 77 80 83 86 89 91 93 96 98 101 103 105 107 109 111 112 113 113 114 115 116 116 116 115 113 113 113 116 120 119 115 108 101 93 87 82 77 72 67 63 60 56 52 51
60 62 64 64 64 65 66 67 67 68 70 73 76 77 76 76 78 81 82 82 80 77 74 76 75 71 70 71 72 72 68 65 64 63 62 64 67 69 71 72 74 76 79 82 85 88 91 93 95 97 100 102 104 107 108 110 112 113 114 115 116 117 118 118 118 116 115 113 112 114 119 120 116 110 103 95 88 83 78 73 68 64 61 58 53 50
60 62 64 65 66 68 69 70 71 71 73 75 79 79 78 77 78 80 81 80 78 74 70 70 73 74 71 68 67 66 62 61 62 62 63 65 68 71 73 76 78 80 82 85 87 90 92 95 97 99 101 104 106 108 110 111 113 114 115 116 118 119 120 120 120 118 116 114 113 113 117 121 118 112 105 97 90 84 79 75 70 65 61 59 55 51
61 62 64 65 67 70 72 72 73 74 75 77 80 80 78 77 77 77 77 77 74 71 70 69 72 75 73 66 62 61 60 60 62 63 64 66 69 72 76 79 82 84 86 87 89 92 94 96 99 101 103 106 108 109 111 112 113 115 116 117 119 120 121 121 121 119 117 115 113 113 116 120 119 114 106 99 92 86 80 75 71 67 62 59 56 53
63 63 65 66 67 71 75 75 75 75 76 78 80 79 76 74 74 73 73 73 72 71 71 71 71 72 71 65 59 58 59 61 64 66 67 68 71 75 79 83 85 87 89 90 92 94 96 99 101 103 105 107 109 110 112 113 114 115 117 118 120 121 122 122 122 120 118 115 114 113 114 118 120 115 107 100 94 87 81 76 72 68 63 59 56 54
66 66 67 67 67 70 75 76 75 76 76 77 77 75 72 70 70 71 72 73 73 72 72 71 68 65 64 61 57 57 59 63 66 68 69 71 75 79 81 85 87 90 92 93 95 97 99 101 102 104 106 108 110 111 113 114 115 116 118 119 121 122 123 123 123 122 119 116 115 113 113 116 119 116 109 101 95 88 82 77 72 69 65 60 57 54
69 68 69 68 66 69 73 73 73 73 74 75 74 70 69 69 70 71 72 74 75 73 71 69 65 60 57 55 56 58 61 64 68 71 72 74 78 82 84 86 89 92 94 96 97 99 100 102 104 106 107 109 110 112 113 114 116 117 118 120 121 123 124 124 123 122 120 118 115 114 113 114 117 116 110 102 95 89 84 78 73 69 66 62 58 55
70 69 69 67 65 66 69 69 68 69 71 73 71 68 67 69 70 71 73 76 76 73 70 66 61 57 56 56 57 59 62 66 71 75 76 77 80 83 86 88 90 93 95 97 99 101 102 104 106 107 108 110 111 112 113 115 116 117 119 120 122 123 124 124 124 123 121 119 116 115 113 113 116 116 110 102 95 90 84 79 74 70 67 63 60 56
69 68 68 66 64 64 66 66 66 68 72 73 70 67 67 68 70 70 73 77 75 70 66 62 59 58 58 59 60 61 63 68 73 79 81 81 83 85 87 90 93 94 97 99 100 102 103 105 107 108 109 110 111 113 114 115 117 119 120 121 122 123 124 124 124 123 121 120 117 115 114 113 114 114 110 102 95 89 85 80 74 70 67 65 62 59
67 67 66 65 64 62 63 65 65 67 72 73 69 66 67 69 70 69 71 76 74 66 61 59 58 60 61 62 64 64 66 70 75 81 85 85 86 89 90 93 95 96 98 100 101 103 104 106 108 109 110 111 112 113 115 116 118 119 121 122 123 124 124 124 124 123 121 120 118 116 115 113 113 113 109 102 95 89 85 80 75 70 67 65 64 62
64 64 63 62 62 61 62 64 64 65 69 71 67 65 67 68 67 63 64 70 69 62 60 59 60 62 63 64 67 69 70 72 76 82 87 88 89 92 94 95 97 98 99 101 102 103 105 107 109 110 111 112 114 115 116 117 119 120 122 123 124 124 124 124 124 122 121 120 119 117 115 114 113 112 108 101 94 88 84 80 76 71 67 64 62 61
61 61 61 60 61 61 60 61 61 62 65 65 63 63 64 63 60 55 53 58 62 61 62 62 62 64 66 68 70 73 74 74 76 82 87 89 91 93 94 96 97 99 100 102 103 104 106 108 110 111 113 114 115 117 118 119 120 121 123 124 124 124 124 124 123 122 121 120 119 118 116 114 112 110 106 99 93 87 82 79 76 71 67 63 61 60
59 59 60 59 60 60 58 58 58 58 60 60 59 59 57 54 52 51 50 54 60 63 65 65 65 67 70 72 75 77 78 77 77 81 86 88 90 92 94 96 98 100 101 103 105 106 108 109 111 113 114 116 117 119 120 121 121 122 123 125 125 125 125 124 123 122 121 120 119 117 116 114 112 109 104 98 91 85 81 78 75 71 67 63 60 59
58 58 58 58 58 58 57 56 57 56 55 55 55 54 52 51 52 53 53 56 62 65 67 68 69 71 74 76 78 80 82 83 81 83 87 89 90 93 95 97 99 101 103 105 107 109 110 111 113 114 116 118 119 121 122 122 123 123 124 125 126 125 125 124 123 122 121 120 118 117 116 114 112 108 103 96 89 84 79 76 74 71 67 63 60 58
55 55 56 56 56 56 55 54 54 53 52 53 53 53 53 54 56 57 56 58 62 66 69 71 72 75 78 80 82 84 87 90 89 88 90 92 94 96 98 100 102 104 106 108 109 111 112 113 115 116 118 120 121 122 123 124 124 125 125 126 126 126 125 124 123 122 121 120 118 117 115 113 111 107 101 93 87 82 78 74 72 70 67 63 60 57
52 52 53 52 51 51 51 50 50 52 54 55 56 57 58 58 60 61 62 63 65 67 71 74 77 80 82 84 86 88 89 92 95 95 96 97 99 100 102 104 106 107 109 110 111 113 114 115 117 118 120 122 123 124 125 126 126 126 126 126 126 126 125 124 123 122 121 119 118 116 114 112 110 106 99 91 85 80 76 73 70 69 66 63 60 56
45 45 45 46 46 46 48 49 49 52 55 58 59 61 62 63 64 65 66 69 71 72 74 77 81 84 85 86 88 90 91 93 96 99 100 102 103 105 106 108 109 110 111 112 113 115 117 118 120 121 123 124 125 126 127 128 128 128 127 127 126 126 125 124 123 121 120 118 117 115 113 111 108 104 97 89 82 78 74 71 69 67 65 63 60 56
39 39 41 44 45 47 49 51 52 54 57 59 61 63 65 67 69 70 70 72 76 79 79 80 83 87 89 89 90 92 95 97 99 102 103 105 107 109 109 110 111 111 112 114 116 118 120 121 123 124 126 127 127 128 129 129 130 129 128 127 126 125 124 123 122 120 118 116 115 114 111 109 105 101 94 86 80 76 73 69 67 65 64 62 60 56
40 41 44 46 49 50 52 55 57 60 63 64 65 67 69 72 74 76 77 77 79 82 84 85 86 90 94 96 96 97 99 102 103 105 106 108 109 110 111 112 113 114 116 118 120 122 124 125 126 128 129 129 130 130 130 130 131 130 128 127 126 124 123 122 120 119 117 115 113 112 109 106 103 98 91 83 77 73 71 68 65 64 62 61 59 56
43 45 48 51 53 56 58 59 61 65 69 71 71 72 74 76 79 81 83 84 85 87 90 91 93 95 98 101 101 101 103 106 107 108 109 111 112 113 114 115 117 119 121 123 125 126 128 129 130 131 131 132 132 131 131 131 131 130 129 127 125 123 122 120 119 117 115 113 111 109 107 104 100 94 87 80 74 71 68 66 64 62 61 60 58 56
47 49 51 54 57 59 62 64 65 68 72 75 76 78 79 81 83 86 87 89 91 93 96 98 99 101 102 104 106 106 107 109 111 112 113 114 116 118 120 121 123 125 126 128 129 131 132 132 133 133 133 133 132 131 130 130 130 129 128 126 124 122 120 118 116 115 113 111 108 106 103 100 96 90 84 77 72 68 66 64 63 61 59 58 57 55
51 53 54 57 59 61 64 66 68 71 75 77 78 80 82 84 87 90 93 94 96 97 99 102 104 106 107 109 111 111 112 113 116 117 118 119 121 123 125 127 128 130 131 132 134 134 134 135 134 134 133 133 132 130 129 129 128 127 126 124 122 120 118 116 114 112 110 108 105 102 99 96 92 86 80 74 69 66 64 62 61 60 58 57 56 54
53 55 56 59 62 64 66 67 69 71 77 81 82 83 86 87 89 93 96 98 100 101 102 104 106 109 111 113 115 116 117 118 121 123 124 125 127 129 130 131 133 134 135 136 136 136 135 135 134 133 132 131 130 128 127 126 125 123 122 122 120 118 115 113 111 108 106 104 101 97 94 91 86 82 76 70 66 64 62 60 59 58 57 56 55 54
56 58 59 61 64 67 69 71 72 73 76 82 86 88 90 91 92 94 96 99 101 103 104 105 107 110 114 117 120 122 123 124 126 128 129 130 132 133 134 135 135 135 136 136 136 135 135 134 133 131 130 129 128 125 124 123 122 120 119 118 117 115 113 110 107 104 101 98 95 92 88 85 81 77 72 67 64 62 60 59 58 56 55 55 54 53
60 62 64 65 67 70 73 75 77 77 77 81 85 88 91 93 94 96 99 101 103 106 108 110 111 113 116 120 124 127 129 130 131 132 133 134 134 135 136 135 135 134 134 134 134 133 132 131 130 129 128 127 125 123 121 120 119 117 115 113 111 111 109 105 102 98 94 91 89 86 83 80 77 73 69 64 61 59 58 57 56 55 54 53 53 52
66 68 69 71 72 74 77 79 82 84 84 86 89 92 94 97 99 101 103 106 108 111 114 117 119 120 122 123 126 129 132 133 134 134 134 133 133 134 134 133 133 132 131 131 130 129 129 128 127 127 126 125 123 121 118 116 115 113 110 107 105 105 104 100 95 92 88 85 83 81 78 76 73 70 66 62 58 57 56 56 54 53 52 51 51 51
Wind_Direction
293 295 295 295 295 295 295 295 296 297 298 299 301 303 305 307 309 310 311 311 312 314 316 316 315 315 316 317 318 319 320 322 324 325 325 325 325 326 326 326 327 328 328 328 327 325 324 325 325 325 324 324 327 330 332 333 334 333 332 333 333 333 332 332 333 333 333 333 333 332 331 330 329 327 323 319 315 310 305 300 296 292 286 277 273 272
294 295 295 295 296 296 296 296 296 297 298 300 302 304 307 308 309 309 310 312 313 315 316 316 315 314 315 316 317 318 320 322 323 324 324 325 325 326 326 326 327 328 328 327 326 325 325 325 325 325 325 327 329 331 332 333 334 334 334 334 335 335 334 334 335 336 336 336 335 334 332 331 331 329 325 321 316 311 307 303 299 295 290 282 275 272
295 296 296 296 295 295 295 295 296 297 298 300 303 305 306 307 308 309 311 312 314 315 316 316 315 314 315 317 318 319 321 322 323 324 324 325 325 326 325 326 326 328 328 326 325 325 325 326 326 326 328 329 331 332 333 334 334 334 334 335 336 336 336 336 337 338 338 338 337 336 334 333 333 331 327 323 319 314 309 305 301 297 293 288 280 274
295 295 295 295 295 294 294 294 295 296 298 301 303 304 305 306 308 310 312 312 313 315 315 317 317 316 317 319 319 320 321 322 323 324 324 324 325 325 325 325 326 327 327 326 325 325 326 326 326 328 330 331 332 333 335 335 335 334 335 336 337 337 338 339 340 341 341 340 339 338 336 335 335 333 329 326 322 317 312 307 303 299 296 291 286 280
294 294 295 295 294 294 293 294 295 296 298 300 302 303 304 306 308 310 311 312 314 316 316 317 318 317 318 320 320 321 322 323 323 324 324 324 324 324 324 325 326 327 326 326 325 326 326 326 328 330 331 332 333 335 336 335 334 335 335 336 338 339 341 342 342 342 342 342 342 341 339 337 336 334 331 328 324 320 316 311 306 301 298 294 290 285
293 293 294 293 293 293 293 294 295 297 299 301 302 303 305 307 309 310 311 312 314 316 317 317 318 317 317 319 320 321 322 323 323 323 323 323 323 323 324 325 326 326 326 326 325 326 326 327 330 332 332 333 334 336 336 335 334 335 335 337 340 342 343 344 344 344 344 344 344 343 341 339 338 336 333 330 327 323 319 314 309 304 300 296 293 289
290 290 291 292 292 293 294 295 297 299 301 301 302 304 306 307 308 309 310 312 314 316 316 316 317 318 318 320 321 321 322 322 322 322 323 322 322 323 324 325 325 326 326 325 325 326 327 329 331 333 333 334 336 337 336 335 335 335 337 340 343 345 346 346 346 345 346 345 345 345 343 340 339 338 335 332 329 326 322 318 312 307 303 299 295 291
288 289 290 291 292 293 295 297 298 300 301 302 303 304 306 307 308 310 311 313 314 315 315 316 318 319 318 319 320 320 321 321 322 322 322 322 322 323 324 325 325 326 325 325 325 327 328 331 332 333 334 335 337 337 336 335 336 337 340 343 346 348 348 348 347 347 347 347 347 347 345 341 340 339 337 334 331 328 325 321 315 310 307 303 298 292
289 290 291 292 293 294 295 297 299 301 302 303 304 304 305 307 309 311 312 313 314 314 315 316 318 318 318 318 319 319 320 320 321 321 321 322 323 324 325 325 325 325 325 325 326 328 330 332 333 334 335 336 337 337 336 336 338 340 343 346 348 350 350 349 348 348 348 348 348 348 346 343 341 340 339 336 333 330 328 324 318 313 310 306 300 294
290 291 292 293 294 295 296 299 300 301 302 303 304 305 306 308 310 311 312 313 314 315 316 317 317 317 317 317 318 318 319 319 320 321 322 323 324 324 325 325 325 324 324 325 327 329 331 332 333 334 335 337 337 337 337 338 340 343 346 348 350 351 351 350 350 349 349 349 349 349 348 344 343 342 341 339 336 333 330 326 321 317 313 309 303 296
290 291 292 293 294 296 298 300 300 301 301 302 303 305 307 309 310 311 313 314 315 315 316 316 315 316 316 316 317 318 319 320 320 322 323 323 324 325 325 325 324 324 324 326 328 329 331 332 333 335 336 337 338 338 338 340 342 345 348 349 351 352 352 351 351 351 350 350 349 350 349 346 344 344 342 341 339 336 332 328 324 320 317 312 306 299
290 291 293 294 296 298 299 300 300 300 301 302 303 305 306 308 309 311 313 314 314 314 314 314 314 315 316 316 317 318 319 320 322 323 323 324 324 325 325 324 323 324 325 326 328 329 331 332 334 335 337 337 338 338 340 341 343 346 349 350 351 352 352 352 352 352 351 351 350 351 351 348 346 345 344 342 341 338 335 331 327 323 320 316 310 303
292 293 294 296 298 299 300 300 301 301 302 303 304 305 307 308 309 311 312 312 313 313 313 313 313 315 317 317 318 319 320 322 323 323 324 324 325 326 325 324 323 323 325 327 328 329 331 332 334 336 337 338 338 339 341 342 344 347 349 351 352 352 353 353 353 353 352 351 351 351 352 350 347 346 345 344 342 340 337 333 330 327 324 320 314 306
293 294 296 297 299 300 301 301 302 302 303 304 305 306 307 308 308 309 310 311 312 313 314 314 314 316 317 318 319 320 321 322 323 323 323 324 325 325 324 323 322 323 325 326 328 329 331 333 335 337 337 338 339 340 341 343 345 348 350 351 352 353 353 354 354 354 353 352 352 352 353 352 349 347 346 345 344 342 340 336 333 330 328 325 318 311
294 295 297 298 299 301 302 302 303 304 305 306 306 307 307 308 309 310 310 311 313 314 315 315 315 316 318 319 319 321 321 322 322 323 323 324 325 325 323 321 321 323 325 326 327 330 332 335 336 337 337 338 339 340 342 343 346 348 350 351 352 353 354 354 355 354 353 353 353 353 353 353 350 348 347 346 345 343 342 340 337 334 332 329 323 316
295 297 298 299 301 302 302 304 304 305 306 306 307 307 308 309 309 310 311 312 313 314 315 315 315 316 318 319 319 320 321 321 322 322 322 323 324 324 322 320 321 323 325 326 328 331 333 336 337 337 337 338 340 341 342 344 346 349 350 352 352 353 354 355 355 355 354 353 353 353 354 354 352 349 348 347 346 345 343 342 339 337 335 333 328 321
297 298 299 300 302 302 303 304 305 305 306 306 307 308 308 309 310 310 311 311 312 313 315 315 314 315 318 319 319 319 320 320 321 321 322 323 323 322 320 319 321 323 325 327 330 333 335 337 337 336 337 339 340 341 342 344 347 349 351 352 352 353 354 355 355 355 355 354 354 354 354 355 354 351 349 348 346 345 345 343 341 338 337 336 332 326
299 300 301 301 302 303 304 304 305 306 307 308 308 308 308 309 310 310 310 310 311 313 315 316 315 314 317 318 318 319 320 320 320 321 321 322 322 321 320 320 322 324 326 329 331 334 336 336 336 336 337 339 340 341 342 345 347 349 350 352 352 353 354 355 355 355 355 355 354 354 354 355 355 353 350 349 347 346 345 344 341 339 338 337 335 329
300 301 302 302 303 303 304 305 307 307 308 308 308 309 309 310 310 310 310 311 312 313 315 317 316 315 317 319 319 319 320 320 320 321 321 322 322 321 320 320 323 325 327 330 332 335 336 336 336 336 338 339 340 341 343 345 347 349 350 351 352 353 354 355 355 356 356 356 355 354 354 355 355 354 351 349 348 347 345 344 342 340 339 339 337 332
301 302 303 304 305 305 306 307 308 309 309 309 309 310 310 311 311 312 312 312 313 314 315 317 317 315 317 320 320 320 320 320 320 321 321 322 322 321 321 322 324 326 329 331 333 335 336 336 336 336 338 339 340 341 344 346 347 349 350 351 352 353 354 354 355 356 356 356 356 355 354 354 355 355 353 350 349 347 346 345 343 341 341 340 339 335
302 304 305 305 306 307 307 308 308 309 309 309 310 310 311 311 311 312 313 313 314 315 316 318 318 316 317 320 321 320 321 320 320 321 322 322 321 322 323 324 325 328 330 332 333 335 335 335 336 336 337 339 340 342 344 346 347 349 350 350 351 352 353 354 354 355 356 356 356 355 354 354 355 356 354 351 349 348 346 346 344 343 342 342 341 339
303 305 305 306 307 307 308 308 310 310 310 310 310 311 311 312 312 312 313 314 314 316 316 318 320 318 318 321 321 320 321 320 321 322 322 322 322 323 324 325 327 329 330 332 334 335 335 335 336 336 337 339 341 343 344 345 347 348 349 350 351 352 353 353 354 355 356 356 356 355 355 354 354 355 355 352 350 349 348 347 346 345 344 343 343 341
304 305 305 306 307 308 308 309 310 311 311 310 310 311 312 313 313 313 314 314 314 316 316 318 320 319 318 320 321 320 321 321 321 322 322 322 323 324 325 326 328 330 331 333 334 334 334 335 336 336 338 340 341 343 344 345 347 348 348 349 350 351 352 353 353 354 355 356 356 356 355 354 354 354 355 354 351 349 349 348 347 347 345 344 343 343
304 304 305 307 308 309 309 310 311 312 311 311 311 311 312 313 313 313 313 314 315 316 316 317 320 320 318 319 321 320 321 321 321 322 323 323 324 325 326 327 329 331 332 333 334 334 334 335 336 337 339 340 341 343 344 345 346 347 347 348 349 350 351 352 353 353 354 355 356 356 355 354 354 354 355 355 352 350 350 349 349 348 347 346 344 343
304 304 305 306 307 308 308 309 311 311 311 310 310 311 312 313 313 312 313 313 314 316 317 317 320 321 319 320 321 321 322 323 321 322 325 325 325 326 327 329 330 331 332 333 333 333 334 335 336 338 339 340 341 342 344 345 345 346 346 347 348 349 350 351 351 352 353 354 356 356 355 354 353 353 354 355 353 351 350 350 350 350 349 347 346 344
304 305 305 306 307 307 307 307 309 310 309 309 309 310 311 312 312 311 312 312 314 316 317 317 319 321 320 320 322 322 323 323 321 323 326 327 326 327 328 329 331 332 332 332 333 333 334 335 337 338 339 340 341 342 343 344 344 345 345 346 347 348 348 349 350 351 352 353 355 356 355 354 353 353 353 354 354 352 350 350 351 351 350 348 347 346
304 305 306 307 308 307 307 307 308 309 309 309 309 309 311 312 311 311 311 312 314 317 319 319 319 320 320 321 322 323 324 323 322 324 327 327 327 328 329 330 330 331 332 332 333 334 334 336 337 338 339 340 341 342 342 343 343 343 344 345 346 346 347 348 349 350 351 352 354 355 355 354 353 352 352 353 354 353 350 350 351 352 351 349 348 348
304 305 306 307 308 307 307 307 309 309 310 309 308 309 311 312 312 311 312 313 316 318 320 320 319 319 320 322 323 323 324 323 322 324 326 327 328 328 329 329 330 331 331 332 333 334 335 336 337 338 339 339 340 341 341 342 342 342 343 344 344 345 346 346 347 348 350 351 352 354 355 354 353 352 351 352 353 353 351 350 351 352 352 351 349 348
304 305 305 307 307 307 306 307 309 309 310 309 308 309 311 312 312 313 313 315 318 320 321 320 319 319 321 324 325 324 324 323 323 324 326 328 328 328 329 329 330 330 331 332 333 334 335 336 337 337 338 339 340 340 340 340 341 341 341 342 343 343 344 345 346 347 348 350 351 353 354 354 353 351 351 351 352 353 352 350 350 351 352 353 352 349
304 305 305 306 307 306 306 307 309 309 309 308 307 309 313 314 314 315 316 317 318 320 320 319 320 321 322 325 326 325 325 324 324 325 327 328 328 329 329 329 330 330 331 332 334 334 335 335 336 337 337 338 338 338 338 339 339 340 340 341 341 342 342 343 344 345 347 348 350 351 353 354 353 351 350 350 350 351 352 350 350 351 352 353 353 351
304 304 304 305 306 305 305 307 309 309 309 308 308 311 314 316 316 317 317 317 317 318 318 319 321 323 323 325 326 326 325 324 324 324 326 328 328 328 329 330 330 331 331 332 333 334 334 335 335 336 336 337 337 337 337 337 338 338 339 339 340 340 341 341 343 344 345 347 348 350 352 353 352 350 349 349 349 350 351 351 349 350 351 352 354 353
302 303 303 305 307 306 305 308 309 310 309 307 308 313 316 317 317 317 317 315 315 317 320 321 323 324 324 324 325 325 325 325 324 324 326 328 328 328 329 330 330 331 331 332 332 333 333 333 334 334 335 335 335 335 336 336 336 337 337 337 338 338 339 340 341 342 344 345 347 348 350 351 352 350 348 348 348 348 349 350 349 349 350 351 353 354
302 303 305 307 309 308 307 308 309 309 307 306 309 314 317 316 316 316 315 313 315 319 322 323 324 324 324 324 325 325 325 326 325 324 325 328 328 328 329 329 329 330 330 331 331 331 332 332 332 333 333 334 334 334 334 335 335 335 336 336 336 337 337 338 340 341 342 344 345 347 348 350 351 350 348 347 347 347 347 349 349 349 349 350 351 353
303 305 307 309 310 309 308 308 309 308 305 305 310 315 315 314 314 314 313 313 316 321 322 323 324 324 323 323 324 325 326 326 325 323 324 327 327 327 328 328 329 329 329 329 329 330 330 331 331 331 332 332 332 332 333 333 333 334 334 334 335 335 336 337 338 339 341 342 344 345 346 348 349 349 347 346 346 346 346 347 349 349 349 350 350 351
306 307 309 310 311 310 309 309 308 307 305 306 311 314 313 312 313 316 316 314 317 321 321 322 323 322 322 323 323 324 326 327 325 323 323 326 326 326 327 328 327 327 327 327 327 328 329 329 329 330 330 330 331 331 332 332 332 332 332 333 333 334 334 335 337 338 339 340 342 343 345 346 348 349 347 345 344 345 345 345 347 348 349 349 350 351
308 310 311 312 312 312 311 309 309 308 306 307 312 314 312 312 315 320 320 317 317 319 320 321 321 320 321 322 322 323 324 325 325 323 322 325 326 326 326 326 325 325 325 325 326 326 327 327 328 328 329 329 329 330 330 330 330 330 331 331 332 332 333 334 335 336 338 339 340 341 343 344 346 347 346 344 343 344 344 344 345 347 348 349 350 350
312 313 314 314 314 312 312 310 310 309 307 309 312 312 312 315 319 323 323 317 315 317 318 319 320 320 320 321 321 321 322 323 324 322 321 323 324 324 323 322 322 322 323 324 324 325 326 326 327 327 327 328 328 328 328 328 329 329 329 329 330 331 332 333 334 335 336 337 338 339 341 342 344 346 346 343 342 342 343 342 343 345 347 348 349 350
314 315 315 315 313 312 312 311 310 310 309 311 314 313 315 320 322 323 322 317 315 316 317 319 320 319 319 319 319 319 319 321 322 321 320 321 321 320 320 320 320 321 322 323 323 324 324 325 325 326 326 326 326 326 326 327 327 327 327 328 329 330 331 332 333 334 335 336 337 338 339 340 342 344 345 343 341 341 342 341 342 343 345 347 348 349
314 315 315 313 312 311 312 313 312 314 316 317 318 318 320 323 322 321 321 318 316 316 317 318 319 317 317 317 317 318 319 320 321 321 319 319 319 319 319 320 320 321 321 322 322 323 323 324 324 324 324 324 324 324 325 325 325 326 326 326 327 328 329 330 331 332 333 334 335 336 337 338 340 342 343 342 340 340 341 341 340 341 343 345 347 348
313 314 313 312 312 313 315 317 318 321 323 322 320 321 322 322 321 321 321 319 317 316 316 317 317 316 317 318 319 320 320 320 320 320 319 318 319 319 319 320 320 321 321 321 321 322 322 322 322 322 322 322 322 322 323 323 324 324 325 325 326 327 328 329 330 331 331 332 333 334 335 336 338 340 342 341 339 338 339 340 339 339 341 343 345 346
313 313 313 315 318 320 321 323 325 325 324 321 321 321 322 322 321 320 320 319 317 317 317 317 317 317 318 319 319 320 319 318 318 319 319 319 319 319 319 320 320 320 320 320 320 320 320 321 321 320 320 320 320 321 321 322 322 323 323 324 325 326 326 327 328 329 330 330 331 332 333 334 336 338 340 340 338 337 338 339 338 338 339 341 344 345
318 321 322 323 324 324 324 325 326 324 321 320 321 321 321 321 320 320 320 319 318 318 319 319 318 318 318 318 318 318 318 317 318 318 319 319 319 319 319 319 319 319 318 318 318 318 319 319 319 318 319 319 319 319 320 320 321 322 322 323 324 324 325 326 327 327 328 329 329 330 331 333 334 336 338 338 337 335 336 337 337 336 337 339 341 343
328 329 327 325 325 324 323 323 323 321 319 319 320 321 320 320 320 320 321 320 319 319 319 319 317 316 316 317 317 318 318 318 318 318 319 318 318 318 318 317 317 317 317 317 317 317 317 317 317 317 317 318 318 318 319 319 320 320 321 322 322 323 324 324 325 326 326 327 328 329 330 331 332 334 336 337 336 334 334 335 336 335 335 337 339 341
330 329 326 324 324 323 323 323 323 321 319 320 321 321 321 320 320 321 321 320 319 318 318 318 317 317 317 318 319 319 319 318 318 318 318 317 317 316 316 316 316 316 316 315 315 315 315 316 316 316 316 317 317 318 318 318 319 319 320 320 321 321 322 322 323 324 325 325 326 327 328 329 331 332 334 335 334 333 332 333 334 334 334 335 337 339
329 328 327 325 325 324 324 324 324 322 320 320 321 321 321 321 320 320 320 320 319 318 318 318 318 318 318 318 319 319 318 317 317 317 316 316 315 315 315 315 315 315 315 314 314 314 315 315 315 315 316 316 316 317 317 317 317 318 318 319 319 320 320 321 321 322 323 324 324 325 326 328 329 331 332 333 332 331 331 332 333 333 332 333 334 336
328 328 327 326 325 324 324 324 324 322 320 320 321 321 320 320 320 319 319 319 319 319 319 319 319 319 319 318 318 318 317 316 316 316 315 315 315 315 315 315 314 314 314 313 313 314 314 314 314 314 315 315 315 316 316 316 316 316 317 317 318 318 319 319 320 320 321 322 323 324 325 326 327 329 330 331 331 329 329 330 331 331 331 331 332 334
328 327 327 325 324 323 323 323 323 321 319 318 319 319 319 320 320 319 319 319 319 320 320 320 319 318 318 317 316 316 316 315 315 315 315 315 315 314 314 314 313 313 313 313 313 313 313 313 313 314 314 314 314 315 315 315 315 315 315 315 316 317 317 318 318 319 319 320 321 322 323 325 326 327 329 329 329 328 327 328 329 329 329 329 330 332
327 326 325 324 322 321 321 321 321 320 318 318 319 319 319 320 320 319 319 319 319 319 319 319 318 317 316 315 315 315 315 315 315 315 315 315 314 314 313 313 313 312 312 312 312 312 312 312 313 313 313 313 313 313 314 313 313 313 314 314 314 315 315 316 316 317 318 318 319 320 322 323 324 325 327 327 327 326 326 326 327 327 327 327 328 329
325 324 323 323 322 321 321 321 321 321 320 318 318 319 319 319 319 318 318 318 317 317 317 316 315 315 315 315 315 315 315 315 315 315 314 314 313 312 312 312 312 311 311 311 312 312 312 312 312 312 312 312 312 312 312 312 312 312 312 312 313 313 314 314 314 315 316 317 318 319 321 322 323 324 325 325 325 324 324 324 325 325 325 326 326 327
324 323 323 324 323 321 321 321 321 321 320 318 317 317 317 317 318 317 317 316 316 315 315 315 315 315 315 315 315 315 315 315 314 313 313 313 312 311 311 311 311 311 311 311 312 312 312 311 311 311 311 311 310 311 311 310 310 311 311 311 312 312 312 312 313 314 315 316 317 318 319 320 321 322 323 323 323 322 321 322 322 323 323 324 324 324
323 323 323 323 323 322 322 321 321 321 321 320 318 318 317 317 317 317 316 316 316 316 316 316 316 316 316 315 314 314 313 313 313 312 312 312 312 311 311 312 312 312 312 311 311 311 311 310 310 310 310 309 309 309 309 309 309 309 310 310 311 311 310 311 312 313 314 315 316 317 318 318 319 320 321 321 321 320 319 319 320 320 321 321 322 322
Height
10698 10696 10694 10693 10691 10689 10687 10684 10682 10679 10677 10674 10671 10669 10666 10662 10660 10658 10655 10652 10646 10641 10636 10629 10623 10619 10616 10613 10608 10602 10597 10591 10585 10580 10574 10568 10562 10556 10551 10544 10538 10531 10524 10518 10512 10504 10497 10489 10482 10475 10468 10460 10451 10441 10431 10421 10411 10400 10389 10378 10366 10353 10339 10326 10313 10299 10285 10271 10257 10241 10228 10216 10204 10192 10182 10174 10168 10160 10152 10147 10144 10141 10139 10138 10133 10129
10695 10694 10692 10690 10688 10686 10683 10681 10679 10676 10674 10672 10669 10666 10663 10659 10656 10653 10651 10649 10645 10639 10633 10627 10620 10615 10611 10608 10603 10597 10592 10586 10580 10575 10569 10562 10556 10550 10544 10538 10531 10525 10518 10512 10505 10498 10490 10483 10475 10469 10461 10452 10443 10433 10423 10413 10403 10393 10382 10371 10358 10345 10331 10318 10305 10291 10276 10262 10248 10234 10221 10208 10196 10184 10174 10165 10158 10152 10145 10138 10133 10129 10127 10126 10125 10121
10692 10691 10689 10687 10686 10683 10681 10679 10676 10674 10671 10669 10666 10663 10660 10657 10653 10649 10646 10644 10642 10638 10631 10625 10617 10610 10606 10603 10598 10592 10587 10581 10576 10569 10563 10556 10550 10544 10537 10532 10526 10519 10512 10505 10499 10492 10484 10476 10469 10462 10454 10444 10435 10426 10416 10405 10395 10385 10375 10364 10351 10338 10324 10311 10297 10282 10267 10252 10238 10225 10212 10200 10188 10176 10166 10157 10149 10143 10137 10131 10124 10119 10116 10115 10114 10113
10690 10688 10687 10685 10683 10681 10679 10676 10674 10672 10669 10666 10664 10660 10657 10654 10651 10646 10640 10637 10636 10635 10629 10623 10614 10604 10600 10597 10591 10587 10582 10576 10570 10564 10557 10550 10544 10538 10531 10525 10519 10513 10506 10499 10492 10485 10478 10470 10463 10455 10446 10437 10429 10419 10409 10398 10388 10378 10368 10357 10345 10331 10317 10302 10288 10273 10258 10243 10229 10214 10202 10191 10180 10169 10158 10149 10141 10134 10128 10122 10117 10111 10106 10104 10103 10102
10687 10686 10684 10682 10680 10678 10676 10674 10671 10669 10667 10664 10661 10658 10653 10650 10647 10643 10638 10632 10629 10627 10624 10620 10612 10600 10594 10592 10586 10580 10576 10570 10564 10558 10552 10545 10538 10533 10526 10519 10513 10506 10500 10493 10485 10478 10471 10464 10456 10448 10440 10431 10422 10412 10401 10391 10382 10372 10362 10350 10337 10323 10308 10293 10279 10265 10251 10235 10220 10205 10191 10180 10170 10161 10152 10142 10133 10126 10119 10113 10109 10104 10099 10095 10092 10091
10685 10683 10681 10679 10677 10675 10673 10670 10667 10665 10663 10660 10657 10654 10650 10645 10641 10638 10635 10629 10624 10621 10617 10614 10611 10600 10590 10587 10581 10574 10569 10564 10559 10553 10547 10540 10533 10527 10520 10513 10507 10500 10494 10486 10479 10472 10465 10458 10450 10442 10433 10425 10415 10404 10394 10385 10376 10366 10355 10342 10328 10313 10299 10285 10271 10257 10243 10228 10213 10198 10183 10172 10161 10150 10142 10135 10126 10118 10111 10105 10100 10096 10092 10088 10084 10081
10683 10681 10679 10677 10675 10672 10669 10667 10663 10661 10658 10656 10653 10649 10645 10641 10637 10633 10629 10625 10620 10616 10612 10608 10606 10598 10587 10582 10577 10569 10564 10558 10553 10548 10541 10535 10528 10521 10514 10507 10501 10494 10487 10480 10474 10467 10459 10452 10443 10435 10427 10417 10407 10397 10388 10379 10370 10359 10346 10332 10318 10304 10290 10277 10263 10250 10235 10221 10207 10193 10178 10166 10156 10145 10134 10126 10119 10111 10104 10098 10092 10087 10084 10081 10077 10073
10680 10679 10676 10674 10672 10669 10666 10663 10660 10657 10654 10651 10648 10645 10640 10636 10632 10628 10623 10619 10614 10610 10606 10602 10599 10593 10584 10579 10573 10565 10559 10553 10547 10542 10536 10529 10522 10515 10508 10501 10494 10487 10481 10474 10467 10460 10453 10445 10437 10429 10420 10410 10401 10392 10382 10373 10362 10350 10337 10323 10309 10294 10280 10267 10255 10242 10229 10215 10202 10189 10175 10162 10151 10142 10131 10120 10112 10104 10097 10091 10085 10079 10075 10072 10069 10065
10677 10675 10673 10671 10668 10666 10662 10659 10656 10653 10650 10646 10643 10640 10636 10631 10627 10623 10617 10613 10609 10605 10600 10595 10593 10588 10580 10573 10569 10562 10555 10548 10542 10536 10530 10523 10515 10509 10501 10494 10487 10480 10474 10467 10460 10453 10445 10438 10430 10422 10413 10404 10395 10386 10376 10366 10354 10341 10327 10313 10299 10285 10272 10259 10247 10235 10222 10209 10196 10184 10171 10158 10147 10136 10126 10116 10106 10098 10091 10085 10078 10073 10068 10064 10061 10057
10674 10672 10670 10667 10665 10662 10659 10656 10652 10649 10646 10642 10638 10634 10631 10627 10622 10618 10613 10607 10602 10598 10594 10589 10586 10583 10576 10568 10562 10557 10551 10544 10538 10531 10524 10517 10509 10502 10495 10487 10481 10474 10467 10461 10453 10446 10439 10431 10424 10416 10407 10398 10389 10380 10369 10358 10346 10332 10319 10305 10291 10279 10266 10254 10241 10229 10217 10203 10191 10178 10165 10152 10141 10130 10120 10111 10101 10092 10084 10078 10072 10066 10061 10057 10053 10049
10670 10668 10666 10663 10661 10658 10656 10653 10649 10645 10642 10639 10634 10629 10625 10622 10618 10613 10608 10602 10595 10591 10588 10583 10579 10576 10570 10564 10557 10551 10545 10539 10532 10525 10518 10511 10503 10496 10489 10481 10474 10468 10461 10454 10447 10440 10433 10426 10418 10410 10401 10392 10382 10372 10362 10350 10338 10325 10312 10299 10286 10274 10262 10250 10236 10223 10211 10197 10184 10172 10159 10146 10135 10123 10113 10104 10095 10087 10078 10071 10066 10060 10055 10050 10047 10043
10667 10664 10662 10659 10657 10654 10651 10649 10645 10641 10638 10635 10631 10626 10622 10618 10614 10609 10605 10599 10591 10585 10583 10578 10573 10568 10562 10556 10551 10544 10538 10532 10525 10519 10512 10505 10497 10490 10482 10474 10467 10461 10454 10447 10441 10434 10427 10420 10413 10404 10395 10385 10375 10365 10355 10343 10331 10319 10307 10294 10282 10271 10259 10246 10233 10218 10205 10193 10179 10166 10154 10141 10129 10118 10107 10097 10089 10081 10073 10066 10059 10053 10048 10044 10040 10037
10663 10660 10658 10655 10652 10649 10647 10644 10641 10637 10634 10630 10626 10622 10618 10614 10610 10606 10602 10597 10589 10579 10575 10571 10567 10563 10555 10547 10543 10537 10531 10525 10518 10511 10505 10498 10491 10483 10476 10468 10461 10455 10449 10442 10435 10429 10422 10415 10406 10397 10388 10378 10369 10359 10348 10337 10325 10314 10302 10290 10279 10268 10256 10243 10230 10215 10202 10189 10175 10162 10149 10136 10124 10113 10102 10092 10083 10076 10068 10061 10054 10047 10041 10038 10034 10030
10659 10656 10654 10651 10648 10645 10642 10639 10636 10632 10628 10625 10621 10617 10613 10608 10605 10602 10598 10595 10588 10577 10568 10562 10558 10557 10551 10541 10535 10530 10523 10517 10511 10504 10498 10491 10484 10477 10470 10462 10455 10450 10443 10437 10430 10424 10417 10409 10400 10390 10381 10371 10362 10352 10341 10330 10319 10308 10297 10286 10275 10263 10251 10239 10226 10213 10199 10185 10171 10157 10144 10132 10119 10108 10098 10088 10079 10071 10063 10056 10049 10042 10035 10031 10027 10023
10655 10653 10650 10647 10644 10641 10637 10634 10630 10627 10623 10619 10615 10611 10607 10601 10597 10594 10590 10587 10585 10576 10565 10555 10549 10548 10545 10536 10529 10524 10517 10511 10505 10498 10492 10485 10478 10471 10463 10456 10450 10445 10438 10432 10425 10419 10411 10403 10392 10383 10374 10365 10355 10345 10335 10324 10313 10302 10291 10280 10270 10259 10247 10234 10222 10209 10196 10181 10167 10153 10140 10128 10116 10104 10093 10084 10075 10066 10059 10051 10044 10037 10031 10025 10022 10017
10651 10649 10646 10643 10640 10636 10632 10628 10624 10621 10618 10614 10610 10606 10601 10596 10590 10587 10582 10578 10576 10572 10563 10552 10544 10541 10539 10531 10524 10518 10512 10506 10500 10493 10486 10479 10473 10465 10457 10450 10444 10439 10433 10426 10420 10413 10404 10395 10385 10376 10368 10359 10349 10339 10328 10318 10308 10297 10286 10275 10265 10254 10242 10230 10217 10205 10192 10178 10164 10150 10137 10125 10112 10100 10089 10079 10071 10062 10054 10047 10040 10033 10026 10021 10016 10012
10648 10644 10641 10639 10635 10631 10628 10624 10619 10615 10612 10608 10604 10600 10595 10590 10585 10580 10576 10571 10568 10566 10559 10547 10537 10537 10537 10528 10520 10514 10507 10500 10494 10487 10480 10473 10467 10460 10451 10444 10439 10433 10427 10420 10413 10405 10396 10387 10379 10370 10362 10353 10343 10333 10322 10313 10302 10291 10281 10270 10259 10249 10238 10226 10213 10200 10187 10173 10159 10146 10134 10122 10110 10097 10087 10077 10067 10059 10050 10043 10035 10029 10022 10016 10012 10007
10644 10640 10637 10634 10631 10627 10623 10619 10614 10609 10605 10601 10597 10593 10588 10584 10579 10573 10569 10565 10562 10559 10556 10545 10528 10525 10531 10526 10516 10510 10503 10494 10487 10480 10474 10468 10461 10453 10445 10438 10432 10426 10420 10413 10405 10398 10389 10381 10373 10364 10356 10347 10337 10327 10317 10307 10296 10285 10275 10264 10254 10243 10232 10221 10209 10197 10184 10170 10156 10143 10130 10119 10108 10096 10085 10075 10065 10056 10048 10040 10033 10025 10019 10012 10007 10003
10640 10637 10632 10628 10626 10622 10618 10614 10609 10603 10598 10594 10590 10585 10580 10576 10572 10566 10560 10557 10554 10551 10550 10545 10526 10512 10518 10519 10509 10503 10496 10488 10481 10473 10467 10461 10453 10446 10439 10431 10426 10419 10412 10406 10398 10391 10383 10375 10367 10358 10350 10341 10331 10322 10311 10300 10290 10279 10268 10258 10248 10237 10226 10216 10206 10194 10181 10168 10154 10141 10128 10116 10105 10094 10084 10074 10064 10055 10046 10038 10031 10023 10016 10009 10004 9999
10635 10632 10628 10623 10620 10617 10613 10608 10604 10598 10592 10587 10582 10578 10572 10568 10564 10559 10552 10546 10544 10541 10539 10541 10528 10507 10506 10509 10501 10494 10488 10479 10473 10466 10459 10453 10446 10439 10433 10425 10419 10412 10406 10399 10392 10385 10377 10369 10360 10352 10343 10335 10325 10316 10305 10294 10284 10273 10262 10252 10242 10231 10220 10209 10200 10189 10177 10165 10152 10139 10126 10114 10103 10092 10082 10073 10063 10054 10045 10036 10028 10021 10014 10007 10001 9996
10631 10627 10623 10618 10615 10611 10608 10603 10599 10593 10586 10580 10576 10571 10566 10561 10556 10553 10547 10538 10534 10531 10527 10529 10524 10504 10496 10500 10492 10483 10478 10470 10465 10459 10452 10446 10439 10433 10427 10420 10413 10407 10400 10393 10386 10378 10371 10362 10354 10345 10336 10328 10319 10309 10298 10288 10278 10267 10256 10247 10237 10227 10217 10206 10195 10184 10173 10162 10150 10137 10125 10112 10101 10091 10081 10071 10061 10052 10043 10033 10025 10018 10010 10004 9998 9993
10627 10623 10618 10614 10609 10605 10601 10597 10593 10587 10580 10573 10568 10565 10560 10554 10548 10544 10542 10535 10527 10523 10517 10517 10516 10499 10487 10490 10484 10475 10470 10462 10456 10452 10445 10438 10433 10427 10421 10414 10408 10402 10394 10387 10379 10372 10364 10356 10348 10339 10330 10321 10312 10302 10292 10282 10272 10261 10251 10242 10232 10222 10213 10203 10193 10182 10171 10160 10148 10136 10123 10111 10100 10090 10080 10070 10060 10050 10041 10031 10023 10015 10007 10000 9995 9990
10622 10619 10614 10609 10604 10599 10595 10591 10588 10582 10574 10567 10561 10558 10554 10548 10542 10535 10533 10529 10522 10517 10509 10508 10510 10496 10480 10480 10477 10468 10462 10455 10448 10445 10439 10432 10427 10421 10416 10410 10403 10396 10389 10381 10373 10365 10358 10350 10341 10333 10324 10315 10305 10295 10286 10275 10265 10256 10246 10237 10227 10218 10208 10199 10189 10179 10169 10158 10147 10135 10122 10110 10099 10088 10079 10069 10058 10049 10039 10030 10021 10013 10005 9998 9992 9986
10617 10613 10610 10606 10599 10593 10587 10583 10581 10576 10569 10562 10555 10551 10548 10543 10536 10529 10524 10520 10516 10511 10501 10497 10502 10493 10475 10471 10468 10460 10455 10447 10441 10439 10434 10427 10422 10416 10410 10404 10397 10390 10382 10374 10367 10359 10352 10344 10335 10326 10317 10308 10299 10289 10280 10270 10260 10251 10241 10232 10222 10213 10204 10195 10186 10176 10166 10156 10145 10134 10121 10109 10098 10087 10077 10068 10057 10047 10038 10029 10020 10012 10005 9997 9990 9984
10611 10607 10603 10601 10597 10590 10583 10577 10574 10570 10563 10556 10550 10545 10543 10537 10530 10523 10517 10513 10510 10507 10496 10487 10491 10487 10469 10461 10459 10452 10447 10441 10432 10430 10427 10421 10415 10409 10403 10397 10391 10384 10376 10369 10362 10354 10346 10338 10329 10320 10311 10302 10293 10283 10274 10264 10254 10245 10236 10226 10217 10208 10199 10191 10182 10172 10163 10153 10143 10132 10120 10108 10097 10086 10076 10066 10057 10047 10038 10029 10020 10012 10004 9997 9990 9983
10606 10601 10596 10593 10590 10585 10580 10574 10571 10567 10559 10551 10544 10540 10537 10533 10525 10516 10510 10505 10502 10502 10494 10480 10479 10480 10467 10456 10450 10443 10439 10434 10426 10422 10418 10412 10407 10401 10396 10390 10384 10378 10371 10364 10356 10348 10340 10332 10323 10314 10305 10296 10287 10277 10268 10258 10248 10240 10231 10221 10212 10203 10194 10185 10177 10168 10159 10149 10139 10129 10118 10106 10095 10084 10074 10065 10056 10047 10038 10029 10020 10011 10003 9997 9989 9982
10601 10595 10589 10586 10582 10576 10572 10567 10564 10561 10555 10545 10537 10532 10531 10527 10519 10509 10502 10497 10494 10494 10491 10476 10468 10469 10465 10456 10448 10440 10433 10427 10420 10416 10412 10406 10400 10394 10389 10383 10378 10372 10365 10358 10350 10342 10333 10325 10317 10308 10299 10290 10281 10271 10262 10253 10243 10234 10225 10216 10207 10198 10189 10180 10172 10163 10154 10145 10136 10126 10115 10104 10093 10082 10072 10063 10055 10046 10037 10028 10019 10010 10003 9995 9988 9981
10596 10591 10584 10580 10575 10568 10564 10560 10556 10552 10547 10538 10529 10524 10523 10519 10512 10503 10495 10489 10486 10484 10483 10475 10462 10456 10456 10453 10445 10437 10431 10424 10416 10411 10408 10402 10396 10389 10382 10376 10370 10365 10359 10352 10344 10336 10327 10318 10310 10302 10293 10283 10274 10265 10256 10247 10238 10229 10220 10212 10202 10194 10185 10176 10168 10159 10151 10141 10132 10122 10112 10102 10091 10080 10070 10061 10052 10045 10036 10027 10018 10010 10002 9994 9987 9980
10590 10586 10580 10575 10570 10561 10555 10553 10549 10544 10539 10531 10520 10517 10516 10511 10504 10497 10489 10482 10479 10476 10472 10468 10460 10449 10444 10445 10440 10431 10424 10419 10412 10407 10403 10398 10391 10384 10377 10370 10363 10357 10351 10345 10337 10329 10320 10311 10303 10295 10286 10277 10268 10259 10250 10242 10233 10224 10215 10206 10198 10189 10181 10172 10163 10155 10146 10137 10128 10119 10110 10100 10090 10079 10069 10060 10051 10043 10035 10026 10018 10010 10002 9994 9986 9979
10583 10580 10575 10571 10568 10556 10547 10545 10543 10537 10532 10523 10512 10509 10509 10504 10496 10490 10483 10476 10472 10470 10465 10460 10457 10448 10437 10435 10433 10426 10419 10412 10406 10400 10396 10391 10385 10378 10371 10363 10356 10349 10342 10336 10329 10321 10312 10304 10296 10288 10280 10271 10262 10253 10245 10236 10228 10219 10209 10201 10193 10184 10176 10168 10159 10150 10142 10133 10124 10116 10107 10098 10088 10078 10068 10059 10050 10042 10034 10026 10017 10010 10002 9994 9987 9980
10575 10573 10569 10566 10564 10554 10542 10538 10535 10529 10524 10515 10507 10504 10502 10498 10491 10483 10477 10469 10464 10464 10460 10453 10450 10446 10437 10430 10426 10421 10414 10408 10400 10395 10391 10385 10377 10371 10364 10356 10348 10341 10334 10326 10319 10312 10305 10297 10289 10282 10273 10265 10256 10248 10239 10230 10222 10214 10205 10196 10188 10180 10172 10163 10155 10146 10138 10130 10121 10112 10104 10096 10087 10077 10067 10058 10049 10040 10033 10025 10017 10009 10001 9994 9987 9979
10567 10565 10562 10559 10559 10552 10540 10535 10530 10523 10515 10505 10501 10500 10497 10491 10486 10478 10470 10462 10457 10456 10454 10448 10443 10440 10435 10429 10424 10417 10410 10403 10395 10388 10385 10380 10371 10363 10357 10350 10342 10334 10325 10319 10312 10305 10298 10290 10282 10275 10267 10259 10251 10242 10234 10225 10216 10209 10200 10192 10183 10175 10167 10159 10151 10142 10133 10125 10117 10109 10101 10093 10085 10075 10065 10057 10048 10039 10032 10024 10016 10008 10000 9993 9986 9979
10560 10558 10555 10552 10552 10547 10537 10531 10527 10519 10508 10499 10496 10497 10493 10486 10480 10474 10465 10455 10451 10449 10445 10441 10437 10432 10428 10424 10420 10414 10406 10398 10388 10379 10376 10375 10368 10359 10351 10343 10336 10328 10320 10313 10306 10299 10292 10284 10276 10268 10261 10253 10245 10237 10228 10219 10211 10203 10195 10187 10179 10171 10163 10155 10146 10138 10129 10121 10113 10105 10097 10090 10083 10074 10064 10055 10047 10038 10030 10023 10015 10007 9999 9991 9984 9977
10554 10551 10548 10545 10544 10541 10533 10526 10522 10514 10501 10493 10493 10493 10489 10482 10475 10470 10460 10448 10445 10445 10440 10434 10430 10425 10421 10417 10413 10409 10403 10395 10384 10372 10367 10366 10361 10354 10347 10337 10329 10323 10315 10308 10301 10293 10285 10277 10270 10262 10254 10247 10239 10231 10223 10214 10205 10197 10190 10182 10175 10166 10158 10150 10142 10134 10125 10117 10109 10102 10094 10087 10080 10073 10063 10053 10045 10036 10028 10021 10014 10005 9997 9989 9981 9975
10549 10545 10542 10538 10536 10533 10527 10520 10516 10509 10495 10486 10489 10489 10483 10476 10469 10465 10457 10442 10437 10438 10434 10430 10425 10419 10415 10411 10406 10403 10399 10392 10381 10367 10359 10358 10352 10344 10339 10331 10322 10316 10309 10302 10295 10286 10279 10271 10263 10256 10248 10240 10233 10225 10216 10208 10200 10192 10184 10177 10170 10162 10153 10146 10138 10130 10121 10113 10105 10098 10091 10084 10077 10071 10061 10051 10043 10035 10026 10019 10012 10004 9996 9988 9980 9973
10543 10539 10535 10532 10527 10524 10521 10513 10509 10504 10491 10482 10484 10482 10476 10469 10464 10462 10456 10441 10432 10431 10429 10426 10422 10415 10410 10406 10400 10396 10393 10390 10382 10365 10353 10350 10344 10336 10330 10323 10317 10310 10303 10296 10288 10280 10273 10265 10256 10249 10241 10233 10226 10218 10210 10202 10194 10186 10178 10171 10164 10156 10148 10140 10133 10125 10117 10109 10101 10094 10087 10080 10074 10068 10060 10050 10041 10033 10025 10017 10010 10003 9996 9988 9980 9973
10536 10532 10528 10525 10520 10515 10513 10507 10502 10497 10487 10480 10480 10476 10470 10465 10461 10459 10456 10443 10431 10427 10424 10422 10418 10411 10405 10400 10395 10391 10388 10388 10384 10369 10353 10346 10340 10333 10326 10319 10312 10305 10297 10289 10281 10274 10266 10258 10249 10241 10233 10225 10218 10211 10203 10196 10189 10180 10172 10164 10157 10150 10142 10135 10127 10119 10112 10104 10097 10090 10083 10077 10070 10065 10058 10048 10039 10031 10023 10015 10008 10002 9995 9988 9980 9973
10530 10526 10522 10517 10512 10507 10504 10501 10496 10491 10483 10478 10476 10472 10466 10463 10459 10456 10453 10443 10431 10425 10420 10416 10412 10406 10400 10396 10391 10386 10382 10382 10381 10370 10355 10347 10340 10331 10324 10315 10306 10298 10290 10281 10274 10266 10258 10250 10242 10233 10225 10217 10210 10203 10196 10189 10182 10174 10166 10157 10150 10143 10136 10129 10121 10114 10107 10100 10093 10085 10079 10072 10066 10061 10055 10046 10036 10028 10021 10013 10006 9999 9993 9986 9979 9972
10525 10521 10516 10510 10505 10500 10497 10493 10488 10484 10480 10475 10471 10466 10463 10459 10455 10452 10449 10440 10429 10421 10416 10412 10408 10401 10396 10392 10386 10380 10372 10369 10371 10365 10352 10343 10336 10326 10317 10308 10299 10290 10282 10273 10265 10257 10249 10241 10233 10225 10217 10209 10202 10195 10188 10181 10174 10167 10160 10151 10143 10136 10129 10122 10115 10108 10101 10094 10088 10081 10074 10068 10062 10057 10051 10043 10034 10025 10018 10010 10003 9997 9991 9984 9978 9970
10520 10516 10510 10504 10499 10494 10491 10488 10481 10476 10472 10469 10465 10461 10458 10454 10448 10445 10443 10438 10429 10419 10411 10408 10403 10396 10390 10384 10377 10371 10361 10351 10349 10349 10340 10331 10325 10316 10306 10298 10290 10281 10273 10264 10254 10247 10240 10232 10224 10217 10209 10202 10194 10187 10179 10172 10165 10159 10152 10144 10135 10128 10121 10115 10108 10101 10095 10088 10082 10076 10069 10063 10057 10052 10046 10039 10030 10022 10015 10007 10000 9994 9988 9982 9976 9969
10516 10511 10504 10499 10496 10490 10486 10483 10479 10472 10465 10461 10458 10454 10451 10448 10443 10437 10434 10429 10424 10418 10410 10401 10394 10387 10381 10374 10366 10361 10354 10342 10332 10328 10324 10316 10310 10303 10295 10287 10279 10271 10262 10253 10245 10236 10230 10223 10216 10208 10201 10193 10186 10178 10170 10163 10156 10149 10143 10135 10127 10120 10113 10106 10101 10095 10088 10082 10076 10070 10064 10058 10052 10047 10041 10034 10026 10018 10011 10004 9997 9991 9985 9979 9974 9968
10512 10508 10502 10496 10493 10489 10483 10479 10477 10470 10462 10456 10453 10448 10443 10440 10436 10432 10428 10420 10413 10410 10405 10396 10385 10376 10371 10367 10359 10351 10345 10337 10326 10317 10312 10304 10296 10290 10284 10275 10267 10259 10251 10243 10235 10227 10220 10214 10207 10199 10191 10184 10176 10169 10161 10153 10145 10139 10133 10126 10119 10112 10105 10098 10093 10087 10082 10076 10070 10064 10058 10053 10047 10042 10036 10029 10021 10014 10007 10001 9994 9988 9981 9976 9971 9965
10509 10505 10500 10494 10490 10486 10481 10476 10472 10467 10460 10454 10451 10446 10439 10434 10429 10425 10422 10415 10404 10397 10394 10389 10380 10368 10360 10357 10354 10345 10334 10326 10319 10310 10303 10296 10286 10278 10272 10264 10256 10248 10241 10233 10224 10216 10209 10203 10196 10188 10180 10173 10165 10158 10150 10142 10134 10127 10122 10116 10110 10104 10097 10091 10085 10080 10074 10069 10063 10057 10052 10047 10041 10036 10031 10024 10016 10009 10002 9996 9990 9984 9978 9972 9967 9962
10505 10501 10496 10491 10486 10482 10477 10472 10466 10459 10452 10448 10445 10440 10432 10425 10419 10414 10410 10407 10399 10389 10382 10378 10372 10361 10349 10341 10339 10334 10324 10315 10309 10302 10293 10286 10277 10268 10260 10254 10245 10236 10229 10221 10212 10205 10198 10191 10183 10175 10168 10160 10153 10146 10139 10131 10123 10116 10111 10106 10100 10094 10089 10083 10077 10072 10066 10062 10056 10051 10045 10040 10035 10030 10025 10018 10011 10004 9997 9991 9986 9980 9974 9968 9963 9958
10501 10497 10492 10486 10480 10475 10470 10466 10461 10452 10443 10437 10434 10430 10425 10417 10409 10402 10396 10391 10386 10378 10370 10363 10358 10350 10340 10329 10324 10321 10314 10303 10296 10292 10283 10273 10265 10256 10247 10240 10231 10222 10215 10207 10199 10191 10185 10178 10170 10162 10155 10147 10140 10133 10128 10120 10112 10105 10100 10095 10090 10085 10080 10075 10069 10063 10058 10053 10049 10044 10039 10034 10029 10024 10019 10013 10006 9999 9992 9986 9980 9975 9970 9965 9960 9954
10497 10493 10488 10482 10476 10470 10463 10458 10454 10446 10436 10428 10423 10418 10413 10408 10400 10392 10386 10380 10374 10366 10357 10348 10341 10335 10328 10318 10310 10308 10303 10292 10282 10278 10271 10260 10250 10241 10231 10224 10216 10208 10200 10192 10184 10176 10170 10163 10155 10148 10142 10135 10127 10121 10116 10109 10101 10094 10088 10084 10079 10075 10070 10065 10060 10055 10049 10045 10041 10036 10032 10027 10022 10017 10012 10006 10000 9993 9987 9981 9975 9970 9965 9960 9956 9951
10493 10489 10485 10478 10472 10467 10461 10454 10448 10440 10430 10423 10420 10414 10406 10401 10392 10381 10373 10367 10362 10356 10348 10338 10328 10321 10315 10307 10297 10292 10288 10279 10267 10260 10255 10246 10235 10225 10217 10209 10201 10193 10185 10176 10168 10161 10155 10148 10141 10134 10128 10122 10114 10108 10104 10097 10090 10084 10077 10072 10068 10064 10059 10055 10051 10046 10041 10036 10032 10028 10024 10020 10015 10010 10005 9999 9993 9987 9981 9976 9970 9965 9960 9955 9951 9947
10490 10485 10481 10475 10467 10461 10457 10452 10447 10439 10426 10414 10410 10407 10400 10395 10388 10376 10365 10357 10350 10345 10340 10332 10321 10310 10302 10294 10285 10277 10273 10265 10252 10242 10237 10230 10220 10211 10203 10194 10186 10178 10170 10161 10153 10146 10139 10133 10126 10119 10113 10107 10099 10094 10091 10084 10076 10071 10066 10060 10055 10052 10047 10043 10040 10036 10032 10027 10023 10020 10016 10011 10007 10003 9998 9992 9986 9980 9975 9970 9964 9959 9955 9949 9945 9941
10487 10481 10477 10473 10465 10457 10451 10446 10442 10438 10427 10411 10401 10394 10388 10384 10380 10373 10364 10356 10347 10339 10333 10329 10319 10306 10292 10280 10268 10259 10254 10250 10240 10228 10220 10214 10205 10195 10188 10180 10172 10165 10156 10147 10139 10131 10124 10117 10110 10103 10098 10091 10083 10079 10076 10069 10061 10057 10053 10048 10043 10039 10035 10031 10028 10025 10022 10018 10014 10010 10007 10003 9998 9994 9990 9985 9979 9974 9969 9964 9958 9954 9949 9944 9939 9935
10480 10475 10470 10466 10461 10453 10446 10440 10434 10432 10428 10418 10406 10396 10387 10380 10375 10369 10360 10352 10344 10333 10323 10316 10310 10301 10289 10274 10257 10242 10234 10231 10226 10217 10209 10202 10192 10180 10171 10164 10157 10150 10142 10133 10124 10116 10108 10101 10094 10087 10082 10074 10066 10062 10060 10054 10046 10041 10038 10035 10031 10026 10021 10018 10015 10013 10011 10008 10004 10000 9997 9993 9989 9985 9981 9977 9972 9967 9962 9957 9952 9948 9944 9939 9934 9930
10471 10466 10461 10457 10453 10446 10439 10432 10424 10418 10414 10407 10398 10388 10380 10371 10365 10358 10348 10338 10330 10320 10308 10297 10288 10282 10276 10268 10256 10240 10225 10217 10211 10204 10196 10189 10180 10168 10157 10148 10139 10131 10124 10116 10108 10100 10093 10086 10078 10071 10064 10056 10049 10045 10042 10038 10032 10026 10022 10021 10018 10013 10008 10005 10003 10001 9999 9996 9993 9990 9986 9983 9979 9976 9973 9969 9965 9960 9955 9951 9946 9942 9938 9934 9929 9924